This demonstration page uses our WeatherBlox Daily Observations layout. Learn more.

Left ArrowRight Arrow

41.12389, -100.76542

Hourly Observations for March 26, 2020

Temp ( °F °C ) Dew Point ( °F °C ) Humidity (%) Winds ( mph kmh ) Pressure ( in mb ) Visibility ( mi km ) Precip ( " mm )
12:15 am 00:15 Mostly Cloudy 38 3.3 33 0.6 83 83 ESE 6 9 29.88 1012 10 16 0.00 0.00
12:53 am 00:53 Cloudy 39 3.9 34 1.1 82 82 E 9 15 29.79 1009 10 16 0.00 0.00
1:50 am 01:50 Partly Cloudy 37 3 34 1 87 87 E 8 13 29.84 1010 10 16 0.00 0.00
1:53 am 01:53 Partly Cloudy 38 3.3 33 0.6 83 83 E 8 13 29.76 1008 10 16 0.00 0.00
2:12 am 02:12 Mostly Cloudy 38 3.3 33 0.6 83 83 E 8 13 29.85 1011 10 16 0.00 0.00
2:53 am 02:53 Cloudy 38 3.3 33 0.6 83 83 E 14 22 29.75 1008 10 16 0.00 0.00
3:53 am 03:53 Cloudy 38 3.3 33 0.6 83 83 E 13 20 29.74 1007 10 16 0.00 0.00
4:53 am 04:53 Cloudy 38 3.3 34 1.1 86 86 ESE 13 20 29.75 1007 10 16 0.00 0.00
5:53 am 05:53 Cloudy 38 3.3 33 0.6 83 83 ESE 10 17 29.77 1008 10 16 0.00 0.00
6:53 am 06:53 Cloudy 38 3.3 34 1.1 86 86 SE 7 11 29.78 1009 10 16 0.00 0.00
7:53 am 07:53 Cloudy 38 3.3 34 1.1 86 86 ESE 5 7 29.81 1009 10 16 0.00 0.00
8:53 am 08:53 Cloudy 39 3.9 34 1.1 82 82 E 7 11 29.83 1010 10 16 0.00 0.00
9:53 am 09:53 Cloudy 40 4.4 35 1.7 83 83 ENE 9 15 29.84 1011 10 16 0.00 0.00
10:53 am 10:53 Cloudy 42 5.6 36 2.2 79 79 E 8 13 29.83 1010 10 16 0.00 0.00
11:53 am 11:53 Cloudy 43 6.1 36 2.2 76 76 ESE 8 13 29.82 1010 10 16 0.00 0.00
12:13 pm 12:13 Cloudy 44 6.7 36 2.2 73 73 SE 9 15 29.82 1010 10 16 0.00 0.00
12:53 pm 12:53 Cloudy 45 7.2 37 2.8 74 74 SE 8 13 29.81 1010 10 16 0.00 0.00
1:53 pm 13:53 Cloudy 47 8.3 37 2.8 69 69 E 9 15 29.78 1009 10 16 0.00 0.00
2:01 pm 14:01 Cloudy 47 8.3 37 2.8 69 69 ESE 9 15 29.77 1008 10 16 0.00 0.00
2:53 pm 14:53 Cloudy 47 8.3 37 2.8 69 69 SE 9 15 29.76 1008 10 16 0.00 0.00
3:53 pm 15:53 Cloudy 47 8.3 38 3.3 71 71 SE 9 15 29.75 1007 10 16 0.00 0.00
4:53 pm 16:53 Cloudy 48 8.9 39 3.9 71 71 SE 8 13 29.73 1007 10 16 0.00 0.00
5:53 pm 17:53 Cloudy 48 8.9 39 3.9 71 71 SSE 9 15 29.72 1006 10 16 0.00 0.00
6:53 pm 18:53 Cloudy 46 7.8 38 3.3 73 73 ESE 13 20 29.74 1007 10 16 0.00 0.00
7:06 pm 19:06 Cloudy 45 7.2 39 3.9 80 80 SE 10 17 29.75 1008 10 16 0.00 0.00
7:23 pm 19:23 Cloudy 45 7.2 39 3.9 80 80 ESE 9 15 29.74 1007 10 16 0.00 0.00
7:31 pm 19:31 Cloudy 45 7.2 39 3.9 80 80 SE 9 15 29.75 1008 10 16 0.00 0.00
7:53 pm 19:53 Cloudy 44 6.7 40 4.4 85 85 SE 8 13 29.75 1008 10 16 0.00 0.00
8:01 pm 20:01 Cloudy 44 6.7 40 4.4 85 85 ESE 8 13 29.76 1008 9 14 0.00 0.00
8:42 pm 20:42 Cloudy 44 6.7 39 3.9 83 83 SE 10 17 29.77 1008 10 16 0.00 0.00
8:53 pm 20:53 Cloudy 43 6.1 39 3.9 86 86 ESE 9 15 29.76 1008 10 16 0.00 0.00
9:30 pm 21:30 Cloudy 43 6.1 39 3.9 86 86 ESE 9 15 29.80 1009 10 16 0.00 0.00
9:53 pm 21:53 Cloudy 43 6.1 39 3.9 86 86 E 7 11 29.78 1008 10 16 0.00 0.00
10:53 pm 22:53 Cloudy 43 6.1 39 3.9 86 86 E 8 13 29.79 1009 10 16 0.00 0.00
11:29 pm 23:29 Cloudy 43 6.1 38 3.3 82 82 ENE 8 13 29.80 1009 10 16 0.00 0.00
11:53 pm 23:53 Cloudy 43 6.1 38 3.3 82 82 E 8 13 29.78 1009 10 16 0.00 0.00

Powered by AerisWeather